Regional Weather Roundup
Issued by NWS Charleston, SC

Current Version | Previous Version | Graphics & Text | Print | Product List | Glossary On
Versions: 1 2 3 4 5 6 7 8 9 10 11 12 13 14 15 16 17 18 19 20 21 22 23 24 25 26 27 28 29 30 31 32 33 34 35 36 37 38 39 40 41 42 43 44 45 46 47 48 49 50
000
ASUS42 KCHS 311512
RWRCHS

REGIONAL WEATHER ROUNDUP
NATIONAL WEATHER SERVICE CHARLESTON SC
1100 AM EDT FRI JUL 31 2015

NOTE: "FAIR" INDICATES FEW OR NO CLOUDS BELOW 12,000 FEET WITH NO
SIGNIFICANT WEATHER AND/OR OBSTRUCTIONS TO VISIBILITY.

NOT ALL STATIONS ARE QUALITY CONTROLLED BY THE NATIONAL
WEATHER SERVICE. USE DATA WITH CAUTION...ESPECIALLY
DEWPOINT OBSERVATIONS.

SCZ027-030-031-034>040-042>050-311600-
...SOUTHEAST SOUTH CAROLINA...

CITY           SKY/WX    TMP DP  RH WIND       PRES   REMARKS
N CHARLESTON   CLOUDY    85  75  72 VRB5      29.95R HX  93
WATERFRONT PRK   N/A     82  78  88 S10       29.93R HX  91
MOUNT PLEASANT   N/A     84  77  79 S7        29.95R HX  94
JOHNS ISLAND   CLOUDY    81  77  89 S12G17    29.97R HAZE
PINOPOLIS      NOT AVBL
MONCKS CORNER  FAIR      82  72  69 CALM      29.96R
SUMMERVILLE    FAIR      84  73  70 CALM      29.97R HX  91
BEAUFORT MCAS  CLOUDY    85  79  82 S5        29.96R HX  98
BEAUFORT ARPT  PTSUNNY   82  79  89 CALM      29.96R FOG     HX  93
HILTON HEAD IS CLOUDY    73  73 100 SE7G31    29.97R THUNDER FOG
WALTERBORO     PTSUNNY   86  73  66 NE9       29.97R HX  93
ALLENDALE      FAIR      86  75  70 CALM      29.95R HX  95

...SOUTHERN MIDLANDS AND PEE DEE...

CITY           SKY/WX    TMP DP  RH WIND       PRES   REMARKS
GEORGETOWN     NOT AVBL
KINGSTREE      NOT AVBL
ORANGEBURG     MOSUNNY   87  66  49 E9        29.96R
BARNWELL       FAIR      88  70  55 NE13      29.97R HX  92
AIKEN          FAIR      81  61  50 NE10      30.02R
MANNING        FAIR      82  64  54 N6        29.95S
COLUMBIA       PTSUNNY   85  64  49 NE9G18    29.97R
SUMTER         PTSUNNY   80  67  64 N12       29.95R
FLORENCE       MOSUNNY   89  65  44 NE14      29.95R HX  91
MYRTLE BEACH   NOT AVBL
N MYRTLE BEACH PTSUNNY   84  75  74 NW5       29.93R HX  92

$$

GAZ063-065-086>088-099>101-113>116-118-119-134>141-150-311600-
...SOUTHEAST GEORGIA...

CITY           SKY/WX    TMP DP  RH WIND       PRES   REMARKS
SAVANNAH ARPT  PTSUNNY   82  75  79 W3        29.96R
HUNTER AAF     PTSUNNY   83  79  88 SW5       29.94R HX  94
FORT STEWART   PTSUNNY   84  75  74 CALM      29.94R HX  92
STATESBORO     PTSUNNY   84  84 100 CALM      29.95R HX 104
SYLVANIA       MOSUNNY   87  79  76 NE5       29.96R HX 102
CLAXTON        FAIR      84  77  79 NW3       29.95S HX  94

...CSRA...CENTRAL AND FAR SOUTHEAST GEORGIA...

CITY           SKY/WX    TMP DP  RH WIND       PRES   REMARKS
THOMSON        SUNNY     88  71  56 E9G20     30.02R HX  93
AUGUSTA-BUSH   PTSUNNY   85  69  58 E6        29.96R
AUGUSTA-DANIEL SUNNY     87  65  47 NE12      29.98R
SWAINSBORO     FAIR      90  77  66 CALM      29.96R HX 102
VIDALIA        MOSUNNY   84  73  70 CALM      29.96R HX  91
EASTMAN        FAIR      87  78  75 CALM      29.97S HX  99
HAZLEHURST     FAIR      86  78  77 CALM      29.95R HX  98
ALMA           MOSUNNY   84  75  74 S7        29.96S HX  92
WAYCROSS       MOSUNNY   89  80  75 SW9       29.96S HX 106
JESUP          FAIR      88  77  70 W5        29.96R HX 100
BAXLEY         FAIR      86  77  74 CALM      29.95S HX  97
BRUNSWICK      PTSUNNY   84  77  79 W8        29.97R HX  94
SAINT SIMONS   SUNNY     84  76  76 W6        29.96S HX  93

$$

SCZ027-028-034-036>038-045-046-048>050-GAZ119-141-311600-
...LAKE AND SUPPLEMENTAL COASTAL OBSERVATIONS...

STATION/POSITION TIME  TEMP    WIND        PRES    WAVE   SWELL
                       AIR SEA DIR/SP/G            HT/PER HT/PER/DIR
                 (UTC) (F)     (DEG/KT/KT) (MB)    (FT/S) (FT/S/D)
UPR LAKE MARION  NOT AVBL
WINYAH BAY       NOT AVBL
LAKE MURRAY      1400   83      20/  4/ 10 1014.2S
ACE BASIN NERRS  NOT AVBL
FORT PULASKI     1400   81 86  270/  6/  7 1014.4F
SAPELO ISLAND    1400   83     240/  6     1014.0S

$$

ANZ835-935-AMZ111-154-330-350-352-354-370-450-454-472-311600-
...C-MAN AND BUOY OBSERVATIONS...

STATION/POSITION TIME  TEMP    WIND        PRES    WAVE   SWELL
                       AIR SEA DIR/SP/G            HT/PER HT/PER/DIR
                 (UTC) (F)     (DEG/KT/KT) (MB)    (FT/S) (FT/S/D)
BUOY 41004       1450   79 84  280/  8/ 10 1013.7R   3/ 5   3/ 5
BUOY 41008       1450   81 83  240/ 10/ 12 1014.8R   2/ 4   2/140/ 7
FOLLY BEACH CMAN 1400   80     160/ 12/ 13 1014.2R
CAPERS NEARSHORE 1408   81     200/ 14/ 17 1014.2R
FRIPP NEARSHORE  1400   80     260/ 21/ 23 1013.2R


STATION/POSITION TIME  TEMP    WIND        PRES    WAVE   SWELL
                       AIR SEA DIR/SP/G            HT/PER HT/PER/DIR
                 (UTC) (F)     (DEG/KT/KT) (MB)    (FT/S) (FT/S/D)
5E ST. MARYS GA  1421      83                N/A     2/ 8
FRYING PAN BUOY  1450   83 84  320/  2/  4 1013.9R   3/ 8   3/130/ 8
BUOY 41025       1450   82 86  360/ 12/ 14 1011.6R   4/ 9   3/170/ 9
CAPE LOOKOUT NC  1400   83     310/  5/  7 1011.6F
BUOY 41002       1450   79 81  270/ 16/ 21 1015.7R   9/ 8   5/210/ 8
BUOY 41010       1420   80 84  160/ 16/ 19 1017.5R
ST AUGUSTINE FL  1500   86 82  250/  7/  9 1016.1S


$$



USA.gov is the U.S. government's official web portal to all federal, state and local government web resources and services.